DW5272 Weather Reports


time (UTC)temp
C
wind
direction
speed
KPH
gust
KPH
rain 1hr
cm
rain 24hr
cm
rain mn
cm
humidity
%
barometer
mb
20260509112343 10 225 9.7 19.3 0.00 0.00 0.00 86 1002.1
20260509111840 10 211 11.3 27.4 0.00 0.00 0.00 86 1002.1
20260509111337 10 191 11.3 27.4 0.00 0.00 0.00 85 1002.1
20260509110835 10 246 12.9 30.6 0.00 0.00 0.00 86 1002.1
20260509110330 10 227 12.9 30.6 0.00 0.00 0.00 86 1002.1
20260509105829 10 203 11.3 20.9 0.00 0.00 0.00 85 1002.1
20260509105327 10 205 11.3 27.4 0.00 0.00 0.00 85 1002.1
20260509104823 11 184 12.9 32.2 0.00 0.00 0.00 85 1001.7
20260509104320 11 205 14.5 32.2 0.00 0.00 0.00 85 1002.1
20260509103818 11 217 12.9 27.4 0.00 0.00 0.00 85 1002.1
20260509103315 11 248 11.3 25.7 0.00 0.00 0.00 85 1002.1
20260509102814 11 200 11.3 25.7 0.00 0.00 0.00 85 1002.1
20260509102310 11 219 11.3 29.0 0.00 0.00 0.00 85 1002.1
20260509101806 11 215 11.3 29.0 0.00 0.00 0.00 85 1002.1
20260509101303 11 209 11.3 20.9 0.00 0.00 0.00 85 1002.1
20260509100800 11 196 12.9 29.0 0.00 0.00 0.00 84 1002.1
20260509100258 11 236 12.9 29.0 0.00 0.00 0.00 83 1002.1
20260509095754 11 202 9.7 25.7 0.00 0.00 0.00 83 1002.1
20260509095251 11 190 9.7 24.1 0.00 0.00 0.00 84 1002.1
20260509094748 11 200 9.7 27.4 0.00 0.00 0.00 84 1002.4
20260509094245 11 206 11.3 27.4 0.00 0.00 0.00 84 1002.4
20260509093743 11 199 12.9 29.0 0.00 0.00 0.00 83 1002.4
20260509093240 12 209 12.9 33.8 0.00 0.00 0.00 83 1002.4
20260509092738 11 159 11.3 33.8 0.00 0.00 0.00 84 1002.1
20260509092236 11 186 9.7 22.5 0.00 0.00 0.00 84 1002.4
20260509091734 11 176 9.7 22.5 0.00 0.00 0.00 83 1002.4
20260509091229 12 205 11.3 25.7 0.00 0.00 0.00 83 1002.4
20260509090727 12 234 11.3 25.7 0.00 0.00 0.00 84 1002.7
20260509090224 11 171 11.3 24.1 0.00 0.00 0.00 84 1002.7
20260509085722 11 175 9.7 24.1 0.00 0.00 0.00 84 1002.7
20260509085219 11 238 8.0 16.1 0.00 0.00 0.00 84 1002.7
20260509084716 11 234 8.0 14.5 0.00 0.00 0.00 84 1002.7
20260509084212 11 215 8.0 14.5 0.00 0.00 0.00 84 1002.7
20260509083711 11 198 8.0 17.7 0.00 0.00 0.00 85 1002.7
20260509083207 11 213 9.7 22.5 0.00 0.00 0.00 84 1002.7
20260509082703 11 215 11.3 22.5 0.00 0.00 0.00 83 1003.1
20260509082200 11 190 9.7 24.1 0.00 0.00 0.00 83 1003.1
20260509081657 11 194 9.7 25.7 0.00 0.00 0.00 83 1003.1
20260509081154 11 146 9.7 25.7 0.00 0.00 0.00 83 1003.4
20260509080652 11 196 9.7 27.4 0.00 0.00 0.00 82 1003.4
20260509080150 11 226 9.7 27.4 0.00 0.00 0.00 82 1003.4
20260509075648 11 226 9.7 17.7 0.00 0.00 0.00 82 1003.8
20260509075145 12 216 9.7 17.7 0.00 0.00 0.00 81 1003.8
20260509074642 12 180 9.7 22.5 0.00 0.00 0.00 81 1003.8
20260509074138 12 198 9.7 22.5 0.00 0.00 0.00 81 1003.8
20260509073635 12 197 8.0 17.7 0.00 0.00 0.00 81 1003.8
20260509073131 12 166 8.0 20.9 0.00 0.00 0.00 80 1003.8
20260509072629 12 202 8.0 20.9 0.00 0.00 0.00 80 1004.1
20260509072125 12 207 8.0 20.9 0.00 0.00 0.00 79 1004.4
20260509071622 12 203 9.7 20.9 0.00 0.00 0.00 79 1004.1
20260509071119 12 204 9.7 17.7 0.00 0.00 0.00 79 1004.1
20260509070616 12 219 9.7 17.7 0.00 0.00 0.00 79 1004.4
20260509070112 12 169 9.7 19.3 0.00 0.00 0.00 78 1004.4
20260509065608 12 236 9.7 19.3 0.00 0.00 0.00 78 1004.4
20260509065104 12 220 9.7 19.3 0.00 0.00 0.00 77 1004.4
20260509064602 12 219 9.7 19.3 0.00 0.00 0.00 77 1004.4
20260509064100 12 172 9.7 32.2 0.00 0.00 0.00 76 1004.4
20260509063555 13 224 11.3 32.2 0.00 0.00 0.00 76 1004.4
20260509063053 13 235 9.7 27.4 0.00 0.00 0.00 75 1004.4
20260509062550 13 190 11.3 30.6 0.00 0.00 0.00 74 1004.8
20260509062047 13 183 11.3 30.6 0.00 0.00 0.00 73 1004.8
20260509061544 13 200 11.3 22.5 0.00 0.00 0.00 70 1004.8
20260509061041 13 187 9.7 22.5 0.00 0.00 0.00 67 1004.8
20260509060539 13 175 11.3 25.7 0.00 0.00 0.00 65 1004.8
20260509060034 13 194 11.3 25.7 0.00 0.00 0.00 63 1004.8
20260509055530 13 180 8.0 19.3 0.00 0.00 0.00 62 1005.1
20260509055026 13 181 8.0 19.3 0.00 0.00 0.00 61 1004.8
20260509054523 13 192 8.0 19.3 0.00 0.00 0.00 59 1005.1
20260509054021 13 207 6.4 17.7 0.00 0.00 0.00 58 1005.1
20260509053520 12 207 4.8 16.1 0.00 0.00 0.00 60 1005.5
20260509053016 11 189 1.6 6.4 0.00 0.00 0.00 64 1005.5
20260509052514 11 115 1.6 6.4 0.00 0.00 0.00 64 1005.1
20260509052012 11 97 1.6 4.8 0.00 0.00 0.00 64 1005.5
20260509051509 11 95 0.0 3.2 0.00 0.00 0.00 64 1005.5
20260509051006 11 94 0.0 3.2 0.00 0.00 0.00 65 1005.5
20260509050503 11 161 0.0 3.2 0.00 0.00 0.00 65 1005.5
20260509045959 11 181 0.0 1.6 0.00 0.00 0.00 66 1005.5
20260509045457 11 181 0.0 3.2 0.00 0.00 0.00 66 1005.5
20260509044953 10 181 0.0 3.2 0.00 0.00 0.00 66 1005.9
20260509044451 11 181 0.0 3.2 0.00 0.00 0.00 66 1005.5
20260509043948 11 180 1.6 8.0 0.00 0.00 0.00 65 1005.5
20260509043444 11 180 1.6 8.0 0.00 0.00 0.00 65 1005.5
20260509042939 11 165 1.6 8.0 0.00 0.00 0.00 64 1005.5
20260509042437 11 182 1.6 4.8 0.00 0.00 0.00 62 1005.9
20260509041933 11 169 1.6 6.4 0.00 0.00 0.00 61 1005.9
20260509041430 11 177 3.2 6.4 0.00 0.00 0.00 60 1005.9
20260509040928 11 171 1.6 6.4 0.00 0.00 0.00 59 1005.9
20260509040426 11 188 3.2 8.0 0.00 0.00 0.00 57 1005.9
20260509035922 11 193 3.2 8.0 0.00 0.00 0.00 55 1005.9
20260509035419 11 178 3.2 8.0 0.00 0.00 0.00 53 1006.2
20260509034915 11 189 3.2 9.7 0.00 0.00 0.00 50 1006.2
20260509034414 11 165 4.8 9.7 0.00 0.00 0.00 48 1006.2
20260509033910 11 178 4.8 11.3 0.00 0.00 0.00 47 1006.2
20260509033407 11 177 4.8 11.3 0.00 0.00 0.00 45 1006.2
20260509032904 11 163 3.2 9.7 0.00 0.00 0.00 44 1006.2
20260509032401 11 189 3.2 12.9 0.00 0.00 0.00 44 1006.6
20260509031859 11 208 3.2 12.9 0.00 0.00 0.00 43 1006.6
20260509031356 11 159 3.2 9.7 0.00 0.00 0.00 42 1006.6
20260509030854 11 184 4.8 9.7 0.00 0.00 0.00 42 1006.6
20260509030351 11 180 4.8 11.3 0.00 0.00 0.00 42 1006.6
20260509025848 11 179 4.8 11.3 0.00 0.00 0.00 41 1006.6
20260509025343 11 182 3.2 9.7 0.00 0.00 0.00 41 1006.6
20260509024839 11 182 3.2 9.7 0.00 0.00 0.00 41 1006.9
20260509024336 11 180 3.2 9.7 0.00 0.00 0.00 40 1006.9
20260509023833 11 180 4.8 11.3 0.00 0.00 0.00 39 1006.9
20260509023330 11 180 4.8 11.3 0.00 0.00 0.00 39 1006.9
20260509022827 11 189 4.8 8.0 0.00 0.00 0.00 39 1006.9
20260509022324 11 190 3.2 8.0 0.00 0.00 0.00 39 1006.9
20260509021820 11 180 3.2 8.0 0.00 0.00 0.00 38 1006.9
20260509021318 11 175 4.8 9.7 0.00 0.00 0.00 38 1006.9
20260509020815 11 169 4.8 9.7 0.00 0.00 0.00 39 1006.9
20260509020313 11 171 4.8 11.3 0.00 0.00 0.00 38 1006.9
20260509015811 11 157 4.8 11.3 0.00 0.00 0.00 37 1006.9
20260509015309 11 179 4.8 8.0 0.00 0.00 0.00 37 1006.9
20260509014805 11 174 4.8 6.4 0.00 0.00 0.00 37 1006.9
20260509014302 12 173 4.8 9.7 0.00 0.00 0.00 37 1007.2
20260509013758 12 178 4.8 9.7 0.00 0.00 0.00 37 1006.9
20260509013248 12 181 3.2 6.4 0.00 0.00 0.00 37 1006.9
20260509012745 12 176 3.2 9.7 0.00 0.00 0.00 37 1006.9
20260509012241 12 175 3.2 9.7 0.00 0.00 0.00 36 1006.9
20260509011739 12 175 3.2 6.4 0.00 0.00 0.00 36 1006.9
20260509011236 12 174 3.2 8.0 0.00 0.00 0.00 35 1006.9
20260509010729 12 170 3.2 6.4 0.00 0.00 0.00 35 1006.9
20260509010225 12 185 3.2 6.4 0.00 0.00 0.00 35 1006.9
20260509005722 12 185 3.2 8.0 0.00 0.00 0.00 34 1006.9
20260509005220 13 179 3.2 11.3 0.00 0.00 0.00 34 1006.9
20260509004714 13 198 3.2 11.3 0.00 0.00 0.00 34 1006.9
20260509004212 13 166 4.8 11.3 0.00 0.00 0.00 33 1006.9
20260509003709 13 187 4.8 9.7 0.00 0.00 0.00 33 1006.9
20260509003207 13 183 3.2 8.0 0.00 0.00 0.00 33 1006.9
20260509002704 13 186 3.2 9.7 0.00 0.00 0.00 34 1006.9
20260509002202 14 184 4.8 14.5 0.00 0.00 0.00 33 1007.2
20260509001659 14 200 6.4 14.5 0.00 0.00 0.00 31 1007.2
20260509001155 14 169 6.4 14.5 0.00 0.00 0.00 33 1007.2
20260509000653 14 182 6.4 14.5 0.00 0.00 0.00 33 1007.2
20260509000150 14 182 4.8 16.1 0.00 0.00 0.00 34 1007.2
20260508235647 14 168 6.4 14.5 0.00 0.00 0.00 34 1007.2
20260508235143 14 148 6.4 14.5 0.00 0.00 0.00 34 1007.2
20260508234640 14 159 6.4 16.1 0.00 0.00 0.00 34 1007.2
20260508234137 14 173 8.0 17.7 0.00 0.00 0.00 33 1007.2
20260508233637 14 178 8.0 17.7 0.00 0.00 0.00 33 1007.6
20260508233133 15 225 6.4 16.1 0.00 0.00 0.00 32 1007.6
20260508232631 15 180 6.4 14.5 0.00 0.00 0.00 33 1007.6
20260508232127 15 161 6.4 16.1 0.00 0.00 0.00 32 1007.6
20260508231619 15 182 6.4 16.1 0.00 0.00 0.00 33 1007.6
20260508231116 15 209 8.0 16.1 0.00 0.00 0.00 33 1007.6
20260508230612 15 161 8.0 16.1 0.00 0.00 0.00 32 1007.6
20260508230108 15 246 8.0 16.1 0.00 0.00 0.00 33 1007.9
20260508225607 15 216 8.0 17.7 0.00 0.00 0.00 33 1007.9
20260508225102 15 161 8.0 17.7 0.00 0.00 0.00 32 1007.9
20260508224601 15 163 6.4 17.7 0.00 0.00 0.00 33 1007.9
20260508224058 15 223 8.0 16.1 0.00 0.00 0.00 33 1007.9
20260508223556 15 151 8.0 16.1 0.00 0.00 0.00 34 1007.9
20260508223053 15 233 8.0 20.9 0.00 0.00 0.00 33 1007.9
20260508222550 15 182 9.7 20.9 0.00 0.00 0.00 33 1007.9
20260508222047 15 215 9.7 16.1 0.00 0.00 0.00 32 1008.3
20260508221543 16 219 6.4 20.9 0.00 0.00 0.00 32 1008.3
20260508221039 16 196 6.4 20.9 0.00 0.00 0.00 30 1008.3
20260508220536 16 175 8.0 16.1 0.00 0.00 0.00 32 1008.3
20260508220032 16 182 6.4 16.1 0.00 0.00 0.00 32 1008.3
20260508215529 16 180 6.4 16.1 0.00 0.00 0.00 33 1008.3
20260508215026 16 172 6.4 16.1 0.00 0.00 0.00 33 1008.3
20260508214524 16 178 6.4 16.1 0.00 0.00 0.00 37 1008.3
20260508214020 16 201 6.4 16.1 0.00 0.00 0.00 36 1008.3
20260508213518 16 209 9.7 16.1 0.00 0.00 0.00 36 1008.3
20260508213013 15 184 9.7 20.9 0.00 0.00 0.00 34 1008.6
20260508212509 16 211 9.7 25.7 0.00 0.00 0.00 36 1008.6
20260508212006 16 161 9.7 19.3 0.00 0.00 0.00 37 1008.6
20260508211501 15 216 9.7 19.3 0.00 0.00 0.00 35 1008.9
20260508210958 15 176 9.7 20.9 0.00 0.00 0.00 39 1008.9
20260508210454 15 173 9.7 20.9 0.00 0.00 0.00 39 1008.9
20260508205950 15 142 8.0 19.3 0.00 0.00 0.00 39 1008.9
20260508205448 15 223 8.0 16.1 0.00 0.00 0.00 39 1008.9
20260508204944 16 164 8.0 16.1 0.00 0.00 0.00 40 1008.9
20260508204442 16 213 9.7 16.1 0.00 0.00 0.00 39 1008.9
20260508203937 16 213 8.0 16.1 0.00 0.00 0.00 39 1008.9
20260508203434 16 194 6.4 14.5 0.00 0.00 0.00 39 1008.9
20260508202929 16 216 8.0 16.1 0.00 0.00 0.00 38 1009.3
20260508202427 16 214 9.7 17.7 0.00 0.00 0.00 41 1009.3
20260508201924 16 236 9.7 19.3 0.00 0.00 0.00 39 1009.3
20260508201420 16 234 8.0 19.3 0.00 0.00 0.00 38 1009.3
20260508200917 17 163 8.0 17.7 0.00 0.00 0.00 42 1009.3
20260508200415 16 223 8.0 17.7 0.00 0.00 0.00 40 1009.6
20260508195909 16 209 6.4 16.1 0.00 0.00 0.00 41 1009.6
20260508195406 16 240 9.7 17.7 0.00 0.00 0.00 43 1009.6
20260508194857 16 211 9.7 17.7 0.00 0.00 0.00 41 1009.6
20260508194354 16 218 9.7 17.7 0.00 0.00 0.00 40 1009.6
20260508193851 16 202 9.7 17.7 0.00 0.00 0.00 39 1010.0
20260508193348 16 202 9.7 16.1 0.00 0.00 0.00 40 1010.0
20260508192844 16 219 8.0 14.5 0.00 0.00 0.00 37 1010.0
20260508192341 16 207 9.7 17.7 0.00 0.00 0.00 39 1010.0
20260508191838 16 179 9.7 17.7 0.00 0.00 0.00 40 1010.0
20260508191336 16 186 9.7 16.1 0.00 0.00 0.00 39 1010.0
20260508190833 16 215 8.0 19.3 0.00 0.00 0.00 38 1010.0
20260508190329 17 213 9.7 19.3 0.00 0.00 0.00 39 1010.3
20260508185825 16 246 11.3 20.9 0.00 0.00 0.00 38 1010.0
20260508185323 16 229 9.7 20.9 0.00 0.00 0.00 36 1010.3
20260508184820 16 263 9.7 20.9 0.00 0.00 0.00 36 1010.3
20260508184317 16 194 9.7 20.9 0.00 0.00 0.00 36 1010.3
20260508183814 16 161 8.0 16.1 0.00 0.00 0.00 39 1010.3
20260508183310 16 184 6.4 14.5 0.00 0.00 0.00 40 1010.3
20260508182806 16 224 6.4 11.3 0.00 0.00 0.00 38 1010.3
20260508182306 16 196 6.4 16.1 0.00 0.00 0.00 38 1010.6
20260508181759 17 213 8.0 16.1 0.00 0.00 0.00 41 1010.6
20260508181256 16 173 8.0 16.1 0.00 0.00 0.00 38 1010.6
20260508180753 16 221 8.0 16.1 0.00 0.00 0.00 37 1010.6
20260508180250 16 211 8.0 16.1 0.00 0.00 0.00 37 1010.6
20260508175746 16 208 8.0 16.1 0.00 0.00 0.00 37 1011.1
20260508175243 16 174 8.0 19.3 0.00 0.00 0.00 38 1011.1
20260508174741 15 199 8.0 19.3 0.00 0.00 0.00 38 1011.1
20260508174238 16 209 6.4 14.5 0.00 0.00 0.00 37 1011.1
20260508173734 15 223 8.0 12.9 0.00 0.00 0.00 40 1011.4
20260508173230 15 237 8.0 14.5 0.00 0.00 0.00 42 1011.4
20260508172727 15 160 8.0 17.7 0.00 0.00 0.00 44 1011.4
20260508172224 15 232 8.0 17.7 0.00 0.00 0.00 41 1011.8
20260508171721 15 198 8.0 17.7 0.00 0.00 0.00 45 1011.8
20260508171217 15 228 8.0 17.7 0.00 0.00 0.00 43 1011.8
20260508170714 15 224 6.4 17.7 0.00 0.00 0.00 45 1011.8
20260508170212 15 144 8.0 19.3 0.00 0.00 0.00 48 1011.8
20260508165708 14 150 9.7 19.3 0.00 0.00 0.00 46 1011.8
20260508165206 14 167 9.7 19.3 0.00 0.00 0.00 46 1011.8
20260508164702 15 232 9.7 20.9 0.00 0.00 0.00 46 1011.8
20260508164159 15 262 9.7 20.9 0.00 0.00 0.00 48 1011.8
20260508163657 14 224 8.0 16.1 0.00 0.00 0.00 46 1012.1
20260508163154 14 225 9.7 14.5 0.00 0.00 0.00 48 1012.1
20260508162649 13 239 9.7 14.5 0.00 0.00 0.00 52 1012.1
20260508162147 13 169 8.0 17.7 0.00 0.00 0.00 52 1012.1
20260508161643 14 193 8.0 17.7 0.00 0.00 0.00 52 1011.8
20260508161141 14 190 8.0 14.5 0.00 0.00 0.00 53 1012.1
20260508160639 14 239 6.4 12.9 0.00 0.00 0.00 55 1012.1
20260508160136 13 242 8.0 14.5 0.00 0.00 0.00 61 1012.1
20260508155634 13 193 9.7 16.1 0.00 0.00 0.00 61 1012.1
20260508155130 13 192 8.0 16.1 0.00 0.00 0.00 61 1012.1
20260508154627 13 212 9.7 17.7 0.00 0.00 0.00 63 1012.1
20260508154124 12 234 9.7 17.7 0.00 0.00 0.00 64 1012.1
20260508153621 13 207 8.0 14.5 0.00 0.00 0.00 64 1012.1
20260508153117 13 205 8.0 14.5 0.00 0.00 0.00 65 1012.1
20260508152609 12 242 9.7 16.1 0.00 0.00 0.00 66 1012.1
20260508152104 12 229 9.7 17.7 0.00 0.00 0.00 64 1012.1
20260508151601 12 221 9.7 17.7 0.00 0.00 0.00 65 1012.1
20260508151058 12 221 9.7 17.7 0.00 0.00 0.00 62 1012.1
20260508150555 12 200 8.0 17.7 0.00 0.00 0.00 62 1012.1
20260508150051 12 213 8.0 16.1 0.00 0.00 0.00 61 1012.1
20260508145548 12 195 8.0 16.1 0.00 0.00 0.00 59 1012.1
20260508145044 12 208 8.0 14.5 0.00 0.00 0.00 59 1012.1
20260508144542 12 174 8.0 16.1 0.00 0.00 0.00 56 1012.1
20260508144039 12 184 6.4 16.1 0.00 0.00 0.00 57 1012.1
20260508143536 12 169 8.0 16.1 0.00 0.00 0.00 56 1012.1
20260508143033 12 209 8.0 16.1 0.00 0.00 0.00 58 1012.1
20260508142530 12 168 6.4 16.1 0.00 0.00 0.00 55 1012.1
20260508142026 12 236 6.4 11.3 0.00 0.00 0.00 58 1012.1
20260508141523 12 204 4.8 11.3 0.00 0.00 0.00 58 1012.4
20260508141021 12 226 4.8 9.7 0.00 0.00 0.00 58 1012.1
20260508140518 12 225 4.8 11.3 0.00 0.00 0.00 61 1012.1
20260508140013 12 237 6.4 12.9 0.00 0.00 0.00 60 1012.4
20260508135510 11 227 6.4 12.9 0.00 0.00 0.00 63 1012.4
20260508135006 11 244 4.8 11.3 0.00 0.00 0.00 63 1012.4
20260508134503 11 171 4.8 11.3 0.00 0.00 0.00 65 1012.4
20260508134000 11 167 4.8 11.3 0.00 0.00 0.00 66 1012.4
20260508133457 10 203 6.4 12.9 0.00 0.00 0.00 67 1012.4
20260508132954 10 217 6.4 12.9 0.00 0.00 0.00 68 1012.1
20260508132452 10 222 6.4 12.9 0.00 0.00 0.00 68 1012.4
20260508131948 10 210 4.8 12.9 0.00 0.00 0.00 71 1012.4
20260508131443 10 190 4.8 11.3 0.00 0.00 0.00 71 1012.4
20260508130940 9 175 3.2 11.3 0.00 0.00 0.00 75 1012.4
20260508130438 8 228 3.2 6.4 0.00 0.00 0.00 77 1012.4
20260508125933 8 209 3.2 8.0 0.00 0.00 0.00 79 1012.8
20260508125429 7 224 3.2 8.0 0.00 0.00 0.00 82 1012.8
20260508124928 6 178 1.6 6.4 0.00 0.00 0.00 83 1012.8
20260508124425 6 176 0.0 6.4 0.00 0.00 0.00 84 1012.4
20260508123923 6 213 0.0 3.2 0.00 0.00 0.00 84 1012.4
20260508123421 5 184 0.0 1.6 0.00 0.00 0.00 85 1012.4
20260508122917 5 184 0.0 4.8 0.00 0.00 0.00 85 1012.8
20260508122414 5 184 1.6 4.8 0.00 0.00 0.00 87 1012.8
20260508121911 4 185 1.6 4.8 0.00 0.00 0.00 87 1012.8
20260508121409 3 177 0.0 0.0 0.00 0.00 0.00 88 1012.8
20260508120907 3 177 0.0 0.0 0.00 0.00 0.00 89 1012.4
20260508120404 2 179 0.0 0.0 0.00 0.00 0.00 89 1012.4
20260508115902 2 340 0.0 0.0 0.00 0.00 0.00 90 1012.4
20260508115400 1 340 0.0 0.0 0.00 0.00 0.00 90 1012.4
20260508114855 1 340 0.0 0.0 0.00 0.00 0.00 90 1012.4
20260508114353 1 340 0.0 0.0 0.00 0.00 0.00 90 1012.4
20260508113849 0 340 0.0 0.0 0.00 0.00 0.00 91 1012.4
20260508113347 0 340 0.0 0.0 0.00 0.00 0.00 91 1012.4
20260508112844 0 340 0.0 0.0 0.00 0.00 0.00 91 1012.1